Overview Statistics Trail Chart Weather Telemetry Raw packets
 

This is the latest recevied weather packets stored in our database for station/object W7TRD. If no packets are shown the sender has not sent any weather packets the latest 10 day(s).

<< 102 103 104 105 106 107 108 >>
Time Temp. Humidity Pressure Rain* Wind** Luminosity Snow
1787852144 22.78° C 56% 1019.9 hPa 0 mm - 588 W/m² -
1787851833 22.78° C 57% 1019.8 hPa 0 mm - 580 W/m² -
1787851532 22.22° C 59% 1019.8 hPa 0 mm - 566 W/m² -
1787851232 22.78° C 58% 1019.7 hPa 0 mm - 554 W/m² -
1787850928 21.67° C 62% 1019.7 hPa 0 mm - 541 W/m² -
1787850625 21.67° C 60% 1019.7 hPa 0 mm - 532 W/m² -
1787850319 21.67° C 60% 1019.6 hPa 0 mm - 521 W/m² -
1787850015 21.67° C 62% 1019.6 hPa 0 mm - 508 W/m² -
1787849708 21.67° C 60% 1019.6 hPa 0 mm - 492 W/m² -
1787849404 21.11° C 66% 1019.6 hPa 0 mm - 485 W/m² -
1787849102 21.67° C 63% 1019.7 hPa 0 mm - 383 W/m² -
1787848797 20.56° C 66% 1019.6 hPa 0 mm - 451 W/m² -
1787848496 20.56° C 66% 1019.6 hPa 0 mm - 436 W/m² -
1787848191 20.56° C 66% 1019.5 hPa 0 mm - 422 W/m² -
1787847891 20.56° C 66% 1019.5 hPa 0 mm - 405 W/m² -
1787847586 20.56° C 67% 1019.7 hPa 0 mm - 390 W/m² -
1787847281 20.56° C 66% 1019.6 hPa 0 mm - 391 W/m² -
1787846978 20° C 68% 1019.4 hPa 0 mm - 361 W/m² -
1787846677 20° C 68% 1019.5 hPa 0 mm - 346 W/m² -
1787846372 19.44° C 70% 1019.4 hPa 0 mm - 271 W/m² -
1787846068 19.44° C 71% 1019.4 hPa 0 mm - 67 W/m² -
1787845764 20° C 71% 1019.3 hPa 0 mm - 104 W/m² -
1787845459 18.89° C 73% 1019.4 hPa 0 mm - 65 W/m² -
1787845155 18.89° C 74% 1019.3 hPa 0 mm - 65 W/m² -
1787844850 18.89° C 74% 1019.3 hPa 0 mm - 64 W/m² -

* Rain latest hour (hover to see other rain measurements)
** Current wind speed in m/s (hover to see current wind gust speed)